FOX-1

Satellite information

Favourite Embed

Satellite Type and Status

PAYLOADIN ORBIT

Key statistics

Satellite FOX-1 at a glance.

Uptime

3621

Days in orbit

Revolutions

≈ 14.9

Per day

Orbit

LEO

Low Earth Orbit

Inclination

64.8

Latest

Satellite identification and parameters

Extended collection of information and parameters for FOX-1.

Object identification

Identified? True

Debris? False

Object name: FOX-1

International designator: 2015-058D

Object number (NORAD): 40967

Object ID (CCSDS): 40967

Country: UNITED STATES OF AMERICA (US)

Current information (Y/N): Y

RCS size: MEDIUM

Orbital parameters

Period: 96.737 minutes

Inclination: 64.7751 deg

SMA: 6980.51 km

Apoapsis: 705.962 km

Periapsis: 498.788 km

RAAN: 81.0739 deg

Eccentricy: 0.01483943

Argument of periapsis: 165.883 deg

Mean anomaly: 194.6501 deg

Mean motion: 14.88579469 rev/day

Mean motion (dot): 0.00005806 rev/day2

B* drag term: 0.00052107912 1/REarth

Two-line elements (TLE)

Creation date: Sept. 6, 2025, 2:09 a.m.

Reference frame: TEME

Reference center: EARTH

Epoch: Sept. 5, 2025, 9:27 p.m. UTC

TLE line 0: 0 FOX-1

TLE line 1: 1 40967U 15058D 25248.89403393 .00005806 00000-0 52108-3 0 9993

TLE line 2: 2 40967 64.7751 81.0739 0148394 165.8830 194.6501 14.88579469 71214

Live tracking on map

Real-time ground track for satellite FOX-1.

In-orbit conjunctions

There are no conjunctions computed for FOX-1, at the moment. Check back to stay up to date, as we update our databases every day.

Go to all conjunctions

Associated space launch

Classified payload for the U.S. National Reconnaissance Office.

FOX-1 was lifted into orbit during the mission ‘Atlas V 401 | NROL-55 (Multipayload mission)’, on board a Atlas V 401 space rocket.

The launch took place on Oct. 8, 2015, 12:49 p.m. from Space Launch Complex 3E.

For more information about the launch, click the button.

Launch to space Atlas V 401 | NROL-55 (Multipayload mission)
Atlas V 401 | NROL-55 (Multipayload mission)

Agency: N/A

Status: Launch Successful

Launch date: Oct. 8, 2015, 12:49 p.m. UTC

Rocket: Atlas V 401

Launch pad: Space Launch Complex 3E

Location: Vandenberg SFB, CA, USA

...

Latest news about this satellite

There are no fresh news available about this satellite. Check back as we update our databases every day.


Newsletter sign-up

Weekly statistics, charts and insights to help you stay on top of the space industry.